User: anonymous   Login
Location: Unspecified
(0.0000°N, 0.0000°E)
Time: 08:23:40
(UTC+00:00)
Language:

CASSIOPE - Orbit

View from above orbital plane
View from above orbital plane
View from above satellite
View from above satellite

Ground track
Ground track

The orbit data is extracted from the following two-line orbital elements,

1 39265U 13055A   18347.81791999 +.00002467 +00000-0 +68910-4 0  9992
2 39265 080.9669 169.7901 0673063 111.8950 255.5166 14.26637345269073
Epoch (UTC): 13 December 2018 19:37:48
Eccentricity: 0.0673063
inclination: 80.9669°
perigee height: 319 km
apogee height: 1286 km
right ascension of ascending node: 169.7901°
argument of perigee: 111.8950°
revolutions per day: 14.26637345
mean anomaly at epoch: 255.5166°
orbit number at epoch: 26907

The dashed part of the orbit path shows where the satellite is in the earth's shadow,  

DLR